This demonstration page uses our WeatherBlox Daily Observations layout. Learn more.

Left ArrowRight Arrow

39.01783, -85.05884

Hourly Observations for December 31, 2017

Temp ( °F °C ) Dew Point ( °F °C ) Humidity (%) Winds ( mph kmh ) Pressure ( in mb ) Visibility ( mi km ) Precip ( " mm )
12:52 am 00:52 Partly Cloudy 6 -14.4 -2 -18.9 69 69 N 7 11 30.42 1030 10 16 0.00 0.00
1:52 am 01:52 Cloudy 6 -14.4 -2 -18.9 69 69 NNW 7 11 30.42 1030 10 16 0.00 0.00
2:52 am 02:52 Cloudy 6 -14.4 -2 -18.9 69 69 N 9 15 30.43 1031 10 16 0.00 0.00
3:52 am 03:52 Cloudy 6 -14.4 -1 -18.3 73 73 NNE 7 11 30.42 1030 10 16 0.00 0.00
4:52 am 04:52 Cloudy 7 -13.9 0 -17.8 73 73 N 7 11 30.42 1030 10 16 0.00 0.00
5:52 am 05:52 Cloudy 7 -13.9 1 -17.2 76 76 N 8 13 30.41 1030 10 16 0.00 0.00
6:52 am 06:52 Cloudy 7 -13.9 1 -17.2 76 76 N 8 13 30.45 1031 10 16 0.00 0.00
7:52 am 07:52 Cloudy 7 -13.9 1 -17.2 76 76 N 6 9 30.47 1032 10 16 0.00 0.00
8:52 am 08:52 Cloudy 8 -13.3 2 -16.7 76 76 NNW 8 13 30.48 1032 10 16 0.00 0.00
9:52 am 09:52 Cloudy 8 -13.3 2 -16.7 76 76 N 8 13 30.49 1032 10 16 0.00 0.00
10:52 am 10:52 Cloudy 10 -12.2 3 -16.1 73 73 N 7 11 30.50 1033 10 16 0.00 0.00
11:52 am 11:52 Partly Cloudy 13 -10.6 5 -15 70 70 NNE 5 7 30.50 1033 10 16 0.00 0.00
12:52 pm 12:52 Partly Cloudy 15 -9.4 6 -14.4 67 67 NNE 6 9 30.47 1032 10 16 0.00 0.00
1:52 pm 13:52 Partly Cloudy 15 -9.4 6 -14.4 67 67 N 8 13 30.46 1031 10 16 0.00 0.00
2:31 pm 14:31 Mostly Cloudy 15 -9.4 6 -14.4 67 67 N 9 15 30.50 1033 10 16 0.00 0.00
2:52 pm 14:52 Mostly Cloudy 15 -9.4 6 -14.4 67 67 N 6 9 30.46 1032 10 16 0.00 0.00
3:52 pm 15:52 Cloudy with Haze 15 -9.4 7 -13.9 70 70 N 10 17 30.47 1032 5 8 0.00 0.00
4:52 pm 16:52 Cloudy with Haze 13 -10.6 7 -13.9 77 77 N 10 17 30.49 1033 5 8 0.00 0.03
5:24 pm 17:24 Mostly Cloudy 13 -10.6 7 -13.9 77 77 NNW 12 19 30.53 1034 7 11 0.00 0.00
5:52 pm 17:52 Cloudy 12 -11.1 7 -13.9 80 80 N 12 19 30.51 1033 9 14 0.00 0.00
6:52 pm 18:52 Cloudy with Light Snow 12 -11.1 8 -13.3 84 84 NNW 12 19 30.53 1034 3 5 0.00 0.03
7:52 pm 19:52 Cloudy with Light Snow 11 -11.7 8 -13.3 88 88 NNW 12 19 30.55 1035 4 6 0.00 0.03
8:52 pm 20:52 Cloudy 10 -12.2 7 -13.9 87 87 N 6 9 30.56 1035 8 13 0.00 0.03
9:52 pm 21:52 Mostly Clear 8 -13.3 4 -15.6 83 83 N 8 13 30.58 1035 10 16 0.00 0.00
10:52 pm 22:52 Mostly Clear 6 -14.4 4 -15.6 91 91 WNW 3 6 30.59 1036 10 16 0.00 0.00
11:52 pm 23:52 Clear 6 -14.4 3 -16.1 87 87 WNW 8 13 30.59 1036 10 16 0.00 0.00

Powered by AerisWeather